Вернуться в каталог

SL-12 DEB

LostHEO
NORAD 41678·DEBRIS·🇷🇺 Russia

Запущен Oct 26, 2007 с Baikonur Cosmodrome

Loading…

Ближайшие Пролёты (ближайшие 24 часа)

TLE

УстаревшееSource: Space-Track

Эпоха: Sep 29, 2016, 06:55 UTC

1 41678U 07052K   16273.28858696  .00000856  00000-0  43665-2 0  9996
2 41678  65.8557 108.7922 5480019  36.8608 344.5427  4.50383187 34219

Отслеживайте SL-12 DEB в реальном времени с AllMySat

Download on the App Store